Theta_e
357 359 359 361 361 361 357 356 358 356 358 356 358 361 360 359 362 359 359 358 357 357 354 350 351 350 348 350 352 354 355 356 358 357 357 360 361 362 361 360 360 359 359 359 359 359 359 358 357 357 358 358 357 356 356 356 356 356 356 356 356 356 357 357 358 357 357 358 358 358 358 357 357 357 357 357 356 356 355 355 354 353 353 354 353
358 359 359 360 358 358 358 357 357 358 356 356 358 358 358 360 359 361 353 357 359 359 357 352 351 352 352 350 348 349 353 352 355 353 358 359 360 361 361 360 360 359 359 359 359 358 358 358 358 357 357 357 356 356 356 356 356 356 356 356 356 357 357 357 357 357 358 358 358 358 358 357 357 357 356 356 357 355 356 355 355 353 353 353 353
360 361 360 357 357 359 357 357 358 357 360 359 359 361 359 359 359 357 359 359 358 357 356 356 356 353 353 351 350 353 352 353 350 351 350 356 360 361 361 361 360 359 360 359 359 359 358 358 358 356 357 357 356 356 356 356 357 356 356 357 357 357 358 358 358 358 358 358 358 358 358 358 357 357 356 356 356 356 355 355 354 354 354 353 353
364 361 361 357 355 356 358 361 359 360 361 359 360 361 360 363 364 362 362 360 359 358 360 356 356 353 357 352 354 354 355 355 349 350 351 355 359 361 360 361 360 360 360 360 360 360 359 359 358 357 357 357 356 356 356 357 357 357 357 357 357 357 357 358 358 357 359 358 358 358 358 357 357 356 356 356 356 356 355 355 355 354 354 354 354
364 363 359 358 356 358 360 360 361 363 365 365 363 362 360 361 362 363 359 359 357 356 354 356 356 356 355 354 355 354 356 354 352 352 350 353 355 359 361 361 360 360 359 360 361 360 360 359 359 358 358 358 357 357 357 358 357 357 357 357 357 357 358 357 358 359 359 360 359 359 358 358 357 357 357 357 357 356 355 355 355 354 354 354 354
366 364 360 356 358 358 358 359 364 363 362 365 361 360 359 360 358 358 357 357 354 355 352 355 354 355 356 356 357 360 357 356 356 354 355 353 355 358 357 359 361 361 360 360 360 361 361 360 360 359 359 359 358 358 358 358 358 358 357 357 358 358 358 359 359 359 360 360 359 359 360 358 358 357 357 357 357 356 356 355 355 355 354 354 354
366 365 362 358 357 356 357 361 363 364 362 366 361 361 360 359 357 356 357 356 355 356 355 355 352 357 359 360 357 358 357 356 358 356 355 358 359 356 358 358 359 361 363 361 362 360 359 361 360 361 360 360 360 359 360 360 359 358 358 358 359 359 358 359 359 360 360 360 360 360 360 359 359 359 358 358 357 357 357 356 355 355 355 354 354
369 367 363 360 357 359 359 363 365 366 364 365 363 361 362 359 357 353 352 352 356 355 357 357 356 354 357 358 358 359 358 359 358 353 356 362 361 361 362 360 361 359 359 359 362 363 361 361 360 360 360 361 361 361 360 360 360 359 360 360 360 360 360 360 360 360 361 361 361 361 361 361 360 360 360 359 359 359 358 358 357 356 356 356 355
373 369 367 362 360 361 360 363 365 365 363 363 360 359 361 358 361 360 359 358 351 350 353 357 354 354 354 354 355 360 359 362 356 356 356 358 359 357 359 361 362 359 363 359 362 365 364 362 361 360 360 359 359 360 361 361 362 362 361 361 361 361 361 361 361 361 362 362 362 362 362 362 361 361 361 360 360 360 359 359 358 358 357 357 357
376 370 368 364 363 362 361 362 364 363 364 364 362 362 361 359 360 362 360 360 353 351 352 354 354 352 354 351 359 357 356 360 359 361 361 357 357 357 358 359 360 356 357 359 356 363 363 364 365 363 362 362 363 362 362 362 362 362 363 363 363 363 363 363 363 363 363 363 363 363 363 363 363 362 361 362 362 361 361 360 360 359 359 359 358
373 372 368 362 363 363 364 363 364 363 363 362 361 362 361 359 357 361 365 361 356 357 357 357 355 351 348 349 353 358 360 355 362 359 355 353 351 355 353 358 354 354 359 357 351 352 361 366 365 365 364 364 364 364 364 364 363 363 363 363 364 364 364 365 365 365 365 365 365 365 364 364 364 364 364 363 363 363 362 362 362 361 361 360 360
372 372 368 364 363 362 364 362 363 363 359 360 357 359 362 362 360 358 360 359 361 360 359 358 355 352 351 350 352 356 356 355 355 353 355 351 352 354 346 350 355 356 349 354 357 355 358 358 363 360 365 365 367 366 366 365 365 364 363 364 365 365 365 366 367 367 367 367 367 366 366 366 366 365 365 365 365 364 363 363 362 362 362 361 361
370 367 367 364 364 365 364 364 362 361 360 360 362 360 363 363 363 364 359 356 357 357 356 357 354 349 353 348 350 351 350 354 350 347 346 345 344 343 347 349 351 351 358 356 356 355 356 362 361 363 363 371 367 369 368 367 367 366 366 367 367 366 367 367 368 368 368 368 367 367 366 366 366 366 366 366 365 365 365 364 363 363 363 362 362
367 366 366 364 363 362 364 362 361 362 362 366 366 363 362 363 359 360 362 358 356 355 351 357 346 342 343 342 345 348 350 348 345 343 342 342 342 348 352 346 346 350 352 357 357 354 354 358 364 362 361 366 366 372 371 369 368 368 368 367 367 367 367 368 368 369 369 369 369 368 368 367 367 367 367 367 366 366 365 364 364 364 363 363 363
366 365 365 363 363 363 362 362 362 362 362 363 363 362 362 363 362 357 354 359 358 357 355 358 344 347 350 346 337 338 345 344 344 344 343 344 343 343 346 344 347 348 355 357 356 357 349 357 358 363 364 366 366 364 367 369 371 374 369 367 368 367 368 367 368 369 369 369 369 368 367 367 367 367 366 366 366 366 365 364 364 364 363 363 363
362 362 364 366 365 363 361 361 364 365 364 363 361 362 364 363 359 362 361 352 350 349 356 355 355 352 342 342 340 338 333 338 341 341 343 344 341 340 343 343 348 349 356 354 351 359 360 361 359 361 367 365 366 362 363 365 378 375 373 371 366 364 366 366 367 367 367 367 367 367 367 367 366 366 365 365 366 366 365 365 364 364 363 363 363
362 363 364 366 366 365 364 364 364 365 367 363 362 361 361 361 363 362 359 352 345 346 350 351 355 355 350 342 339 336 336 337 335 341 343 341 340 335 344 344 345 351 352 347 349 358 355 354 359 361 362 366 368 366 367 366 374 375 378 373 371 368 368 366 365 365 366 366 366 366 366 366 366 366 366 366 365 365 365 364 364 364 363 363 363
365 365 364 363 364 365 366 365 365 363 364 363 362 363 361 362 362 363 357 360 358 346 346 353 351 357 354 351 349 343 341 341 338 335 350 340 340 339 345 345 343 349 351 349 352 347 353 354 358 360 363 367 360 364 362 363 369 369 376 379 372 370 366 366 364 363 363 364 364 364 365 366 366 366 365 365 364 364 365 364 364 364 363 363 363
365 367 366 365 366 366 368 366 364 365 366 369 366 364 360 363 362 362 360 362 357 351 346 345 351 352 351 350 350 352 350 348 338 340 337 342 343 341 342 344 345 345 349 348 347 349 351 357 354 355 359 361 362 361 371 366 366 368 371 368 366 365 364 362 362 362 362 363 364 365 366 365 365 365 364 364 364 364 365 364 363 363 363 363 361
364 367 368 367 367 366 368 369 366 367 364 364 363 362 362 363 364 362 363 361 359 353 350 346 345 348 353 350 351 353 353 349 350 347 342 338 338 342 343 343 345 345 346 347 347 347 347 354 350 353 358 360 360 361 365 365 369 370 371 364 363 361 360 361 361 361 362 364 365 365 364 364 364 364 364 363 363 363 363 362 362 362 361 358 357
366 368 368 368 369 368 368 370 368 367 365 365 362 364 365 361 362 362 361 361 360 356 355 352 349 348 351 352 353 353 351 351 352 352 346 340 335 339 341 344 344 345 348 346 343 347 349 346 344 353 363 365 365 363 362 367 365 372 365 364 362 363 362 362 361 361 363 364 364 363 363 363 363 363 362 362 362 362 362 360 360 358 355 355 353
368 369 371 369 369 369 366 367 370 368 363 364 364 366 366 364 364 362 363 360 358 356 352 351 352 352 351 353 353 352 352 349 346 344 344 347 339 336 338 340 340 342 348 344 347 348 350 352 353 353 356 364 364 364 367 367 364 360 364 359 364 365 364 362 360 362 362 361 361 361 362 362 362 362 362 362 362 361 359 357 356 354 352 352 351
363 367 368 370 369 370 365 366 367 370 366 371 368 362 362 362 363 363 362 360 357 356 354 354 353 353 351 352 352 349 349 347 347 347 345 342 342 340 338 341 338 336 345 347 352 350 351 351 351 354 362 364 365 363 366 369 362 363 360 361 361 363 361 362 361 360 357 357 357 359 362 362 362 361 361 361 360 357 356 353 352 351 350 348 348
363 362 359 365 370 369 368 366 368 369 367 372 369 366 363 362 360 363 363 362 361 359 357 353 353 355 351 351 348 349 351 349 348 350 346 349 348 344 341 341 342 342 340 348 349 350 351 351 352 358 360 363 366 367 368 373 368 357 368 363 360 362 361 364 361 360 357 355 353 356 359 360 359 359 360 359 356 354 352 350 349 348 346 346 345
362 361 359 362 368 369 369 368 368 370 370 370 371 371 368 364 363 362 361 362 362 361 357 355 350 354 349 350 349 350 350 351 352 348 348 352 349 344 344 340 339 341 345 346 344 346 351 351 355 357 358 364 363 364 364 367 362 362 361 364 360 362 360 361 361 357 357 354 354 357 359 359 357 357 356 356 353 352 349 347 346 345 344 344 344
362 363 361 361 362 367 371 371 373 373 375 376 374 371 371 369 368 364 359 362 362 362 361 356 355 355 354 352 351 348 347 349 349 347 348 347 344 343 347 346 342 342 342 343 348 343 341 352 356 360 360 360 365 364 362 365 364 363 362 367 362 357 359 360 359 358 355 354 354 356 357 357 356 354 355 354 352 349 346 344 344 343 343 344 343
361 364 367 365 364 366 363 369 373 376 374 371 373 374 372 369 369 367 364 360 362 361 359 356 351 353 355 354 350 351 350 351 348 347 348 351 348 349 347 345 341 339 337 341 342 343 345 350 353 361 365 370 366 371 363 366 361 356 363 375 374 357 357 357 357 354 353 352 352 354 354 355 354 354 352 352 350 347 345 344 342 341 341 341 342
361 362 362 365 365 366 366 364 373 372 375 373 372 371 372 367 368 368 364 360 361 362 360 356 353 354 353 355 354 350 353 351 352 353 352 356 354 354 352 350 346 339 339 336 338 337 340 346 349 356 365 368 364 369 368 364 358 357 362 367 375 365 355 355 352 352 350 350 351 352 353 351 352 349 350 349 346 344 343 341 341 340 339 340 340
360 362 363 365 365 364 365 362 365 372 374 372 373 372 376 369 369 369 364 361 363 361 358 358 358 352 353 354 353 352 354 357 356 355 360 361 356 354 353 349 352 349 343 340 342 339 339 344 347 361 368 363 368 367 368 370 359 356 358 366 365 375 355 350 351 349 349 348 349 349 351 350 347 348 347 345 344 343 341 340 340 339 338 337 338
360 357 361 362 365 365 366 365 364 365 367 367 370 371 377 367 368 371 367 367 364 363 362 359 357 357 355 354 354 352 355 355 355 354 362 362 357 356 353 354 353 352 350 346 347 347 346 344 345 359 370 363 361 364 366 365 357 362 359 362 365 373 347 351 352 350 349 349 347 347 349 348 347 346 343 341 341 340 338 338 338 337 336 336 336
361 362 362 360 363 365 366 364 365 364 365 367 371 370 375 368 365 365 366 369 369 365 365 361 358 357 357 354 356 355 356 354 356 355 358 360 359 355 355 355 355 356 355 354 346 350 347 345 345 351 350 358 356 355 358 361 364 364 363 365 368 361 349 358 352 350 349 345 344 343 344 343 342 341 340 341 340 338 338 337 336 336 334 334 333
356 359 360 359 360 361 361 360 358 360 362 363 361 368 373 367 365 363 365 366 366 366 364 363 355 356 357 356 358 357 356 358 357 356 356 361 360 355 355 356 359 358 360 357 352 351 357 349 351 352 352 356 355 358 360 360 371 362 367 366 385 357 368 372 352 349 347 344 342 341 339 338 337 338 340 340 338 338 338 335 334 333 332 331 330
355 356 359 359 360 359 358 359 357 360 362 362 363 366 367 367 367 365 366 367 365 365 365 364 360 359 359 358 359 359 359 357 357 355 354 356 359 357 357 355 353 359 359 357 353 353 358 358 355 352 356 359 354 361 359 360 361 366 361 366 366 364 369 374 366 348 346 342 340 339 338 337 337 338 340 338 338 337 335 334 332 331 330 328 327
356 354 359 358 359 358 357 358 360 357 362 365 360 361 364 365 365 361 363 368 369 365 364 364 364 361 361 361 359 359 360 357 357 355 354 350 353 352 353 352 352 352 359 357 355 355 354 359 357 361 355 360 358 364 363 360 361 364 361 362 361 361 361 362 370 361 344 342 338 337 337 337 337 338 339 339 339 336 334 332 331 328 328 326 325
356 356 355 356 359 360 359 359 361 360 363 362 362 361 362 364 365 362 359 361 363 362 362 363 363 364 361 361 360 360 357 357 357 356 355 354 352 350 350 351 351 351 356 361 360 356 354 356 361 358 358 360 359 359 363 362 368 365 367 366 359 355 359 358 360 365 343 341 338 337 337 336 337 337 336 337 337 335 332 329 327 326 325 324 324
351 356 356 355 356 361 359 359 360 361 361 361 362 362 361 362 364 364 364 363 361 360 360 360 359 360 360 361 359 358 357 357 358 357 355 354 354 355 355 356 357 355 358 358 364 362 359 355 361 359 360 362 364 361 362 364 361 362 362 363 361 361 361 359 357 363 347 339 338 338 337 337 336 335 334 336 335 330 329 326 325 326 326 324 323
348 353 355 357 359 359 356 358 359 360 360 361 362 360 360 361 363 362 363 363 363 362 362 361 360 360 359 359 359 359 359 356 358 358 358 358 356 354 354 355 356 356 357 359 361 363 363 360 361 365 365 366 366 366 365 360 360 361 362 364 362 364 365 363 360 367 346 336 339 337 336 336 336 335 334 333 332 329 328 327 327 326 324 323 322
348 347 353 353 353 356 358 360 360 361 363 363 364 363 359 359 360 360 360 360 359 360 360 360 360 360 358 360 359 359 358 357 357 359 361 359 358 355 356 356 356 358 361 361 363 364 363 363 364 360 365 360 364 367 367 363 358 356 356 358 360 365 370 367 364 358 359 351 351 344 336 335 335 332 333 334 332 330 330 328 327 325 323 321 318
348 346 347 353 354 353 357 358 357 358 361 362 365 365 362 359 358 358 354 355 355 356 358 357 357 358 358 358 360 359 359 359 358 359 360 360 358 361 361 360 360 360 359 361 363 363 363 362 363 363 362 362 362 361 367 369 367 366 363 359 359 363 365 365 366 366 363 358 355 347 346 346 342 338 327 328 330 331 331 330 327 323 322 319 318
350 347 345 346 352 353 353 356 357 356 359 361 363 365 364 360 356 355 355 353 352 354 354 355 355 354 355 356 356 358 358 360 359 360 361 360 363 362 362 362 362 361 360 359 360 359 360 360 360 358 358 363 364 364 361 363 361 364 366 363 359 360 362 367 364 363 365 366 366 359 346 344 342 337 327 327 331 332 332 331 329 329 325 322 320
348 349 348 345 348 353 354 355 356 353 351 356 359 361 363 363 359 354 354 355 353 352 352 351 353 353 353 353 354 355 362 367 364 364 363 363 360 361 364 365 366 363 363 362 360 362 361 360 359 360 356 357 359 361 359 358 357 358 362 360 358 357 358 358 366 366 364 362 363 361 359 359 357 349 347 346 344 337 336 334 335 331 327 322 322
352 353 352 349 347 349 353 355 355 352 349 350 357 348 352 362 362 354 353 357 357 354 353 352 350 349 350 350 351 364 364 367 364 362 358 362 364 364 368 366 364 365 364 363 363 361 360 359 356 356 353 352 353 359 357 357 359 361 356 360 357 358 360 357 363 363 366 360 356 364 363 362 357 358 359 356 353 345 345 341 343 336 329 325 323
357 359 355 350 347 347 349 353 355 353 351 348 345 337 338 344 359 359 353 355 358 357 353 354 352 348 349 350 350 360 370 369 368 356 354 352 356 354 352 356 362 374 365 362 361 362 358 357 356 355 352 354 353 354 352 348 348 348 347 356 355 356 356 354 352 361 372 367 368 367 367 369 368 363 365 363 359 350 352 347 330 330 326 325 324
361 355 353 354 355 349 346 348 351 355 354 346 333 333 335 336 346 361 354 350 350 354 354 352 352 351 348 347 347 347 349 355 358 369 360 352 348 349 348 348 349 349 351 366 369 362 361 357 356 356 355 355 356 359 354 352 355 353 357 358 361 359 358 357 356 355 368 369 368 366 364 370 366 360 364 363 363 362 345 331 329 328 327 325 325
358 361 362 356 356 356 352 351 347 349 354 343 330 330 333 333 334 349 351 350 346 346 351 353 353 352 351 349 345 344 344 360 363 359 371 368 349 343 346 347 347 345 339 338 341 361 371 367 361 360 359 360 359 360 358 359 362 359 362 358 361 360 361 357 357 356 367 371 370 365 361 364 363 359 356 365 362 345 333 329 329 330 326 325 324
360 359 359 361 360 363 359 356 356 351 354 346 329 327 329 330 332 340 355 346 347 347 349 349 350 352 352 350 349 348 347 353 364 359 364 369 370 365 362 362 362 359 347 339 337 337 346 358 363 360 364 367 364 367 370 369 366 364 362 357 360 358 359 360 364 365 369 370 365 362 360 361 362 357 353 357 356 347 346 331 325 327 327 325 324
358 359 359 360 361 361 360 358 357 354 353 338 326 325 325 326 329 335 357 348 343 344 347 349 355 351 358 352 353 350 355 357 352 363 362 365 371 371 368 363 363 363 363 360 359 357 357 357 358 359 363 366 368 369 371 373 372 372 370 368 367 367 366 369 368 367 364 368 370 364 357 362 365 357 356 357 356 357 343 323 323 326 325 324 323
358 359 361 361 360 360 361 360 357 356 355 334 324 323 323 324 327 350 362 356 349 345 345 350 351 357 356 355 357 357 358 363 358 347 357 368 367 370 371 370 365 362 360 359 348 350 358 357 358 356 355 356 349 369 378 376 375 378 374 372 370 369 366 363 360 358 354 360 367 368 362 362 366 355 355 357 357 351 343 336 324 324 324 323 324
360 361 357 357 363 362 361 361 360 360 358 343 322 320 320 322 330 356 362 360 357 354 351 353 352 350 351 357 365 356 357 365 353 335 336 355 366 365 367 369 368 365 362 362 345 338 339 337 336 338 337 336 334 330 325 329 363 365 369 364 360 359 357 353 353 353 355 360 358 366 365 357 362 362 357 358 358 357 348 342 332 324 321 322 322
352 355 356 353 354 354 357 357 356 361 359 348 318 317 318 319 335 358 360 360 359 358 357 357 354 352 356 356 364 359 357 359 341 331 331 350 366 363 362 362 362 361 362 361 357 357 334 333 334 334 335 336 336 335 334 332 332 347 364 357 354 350 346 347 346 349 352 356 357 359 366 359 361 361 358 359 360 358 357 344 337 328 322 318 317
357 357 358 355 355 358 358 357 352 355 359 352 316 317 316 317 335 360 361 360 358 359 359 358 359 358 360 360 360 359 359 356 336 329 329 347 364 362 361 359 357 357 358 359 359 357 363 360 360 357 356 347 356 362 364 343 339 350 361 360 357 352 349 347 348 350 347 348 354 370 361 357 357 355 356 352 350 354 355 344 339 333 332 333 332
Wind_Speed
7 6 3 5 4 4 5 5 5 6 7 4 9 7 4 5 6 6 3 3 5 4 4 6 6 6 6 6 5 4 5 5 6 8 6 7 7 8 10 10 9 8 7 6 6 5 5 4 4 4 3 3 2 2 1 1 2 3 3 4 4 6 6 6 6 7 7 7 7 7 7 7 7 7 7 7 7 7 6 6 6 6 6 5 5
6 4 5 4 4 4 5 5 5 5 6 7 8 7 5 2 4 2 6 3 4 3 4 4 6 6 5 6 6 6 5 5 5 7 7 6 7 7 10 9 9 8 7 6 5 5 5 4 4 3 2 2 2 1 0 1 2 3 4 4 5 5 6 6 6 7 7 7 7 8 8 8 7 7 7 7 7 7 7 6 6 6 6 6 6
5 4 4 4 4 4 5 5 4 4 4 5 7 7 3 3 2 2 3 4 3 4 4 4 4 5 5 5 5 5 5 5 5 6 7 6 7 7 8 10 9 8 7 6 6 5 4 3 3 1 2 0 0 1 1 2 3 3 4 5 5 5 6 6 7 7 7 7 7 7 8 7 7 7 7 7 7 7 8 7 7 7 7 7 7
5 4 4 4 5 5 4 4 5 4 4 5 5 6 5 4 4 4 4 3 4 3 3 4 4 4 4 4 5 5 4 4 5 6 6 5 6 6 7 7 9 8 8 8 7 6 5 4 3 2 2 2 2 2 2 3 3 4 4 5 5 6 6 6 6 7 7 8 8 8 7 7 6 7 7 7 8 8 8 8 8 8 8 7 7
4 4 4 4 5 4 5 4 4 4 5 6 5 5 5 5 4 3 2 4 3 4 3 2 4 4 4 4 4 4 4 4 4 4 6 5 5 6 6 7 7 10 9 8 7 6 5 5 4 4 4 4 4 3 3 4 4 5 5 5 6 6 7 7 8 8 8 7 8 8 8 7 7 7 7 7 7 7 8 8 9 8 8 8 8
4 4 4 5 5 4 5 4 4 5 5 4 3 2 4 3 4 3 2 3 4 3 3 3 4 3 4 4 3 3 3 4 4 4 4 5 4 4 5 5 6 6 7 10 8 8 7 7 6 6 5 5 4 5 4 5 5 5 5 6 6 7 7 8 8 8 8 8 8 8 8 8 8 8 8 7 7 8 8 8 9 9 9 9 9
4 3 3 4 5 5 4 4 4 3 4 2 2 4 4 4 2 4 2 1 4 1 1 4 4 3 3 2 3 3 3 3 3 4 3 3 4 4 4 4 4 5 6 6 9 10 9 9 8 7 7 6 6 6 6 6 6 6 6 7 7 7 7 8 8 8 8 8 8 8 8 8 9 9 8 9 8 8 9 9 9 9 10 10 10
3 2 3 3 4 4 4 5 4 3 3 2 2 4 3 2 5 4 1 2 3 3 4 2 2 4 3 3 3 2 2 3 3 4 4 3 3 3 3 3 3 3 3 3 5 8 12 10 9 9 8 8 8 8 7 7 7 7 7 7 7 7 8 8 8 8 9 9 9 9 9 9 9 10 10 10 10 9 10 10 10 10 11 11 11
3 2 1 3 4 4 5 5 3 3 3 2 2 5 1 3 2 2 2 1 2 4 2 3 1 2 3 3 3 2 3 2 3 3 3 3 3 5 3 3 3 4 4 4 3 6 11 12 12 12 11 10 9 9 9 9 8 8 8 8 9 9 9 9 9 10 10 10 10 10 10 11 10 10 10 10 11 10 10 11 11 11 11 12 12
3 2 1 2 3 3 5 4 3 3 3 1 2 2 3 4 3 2 1 2 1 3 2 3 1 2 2 3 3 2 3 2 3 2 3 3 2 2 3 4 4 5 3 2 3 6 7 11 13 12 11 11 11 10 10 10 10 9 10 10 10 10 10 10 10 11 11 11 11 11 11 11 10 10 11 11 11 11 11 11 12 12 12 12 13
3 2 2 3 3 4 4 4 4 2 2 3 3 3 1 4 4 3 1 2 1 3 4 1 1 2 3 4 3 2 2 3 3 2 4 5 3 4 6 4 4 4 3 4 5 3 4 6 7 7 7 13 11 11 11 11 10 10 10 10 11 11 11 11 11 11 11 12 12 12 11 11 12 12 12 12 12 12 12 13 13 13 13 13 13
3 3 3 3 3 4 4 4 3 3 3 2 4 3 2 2 2 4 3 2 1 2 3 1 2 2 2 2 3 2 1 2 3 4 4 4 4 4 6 5 4 4 5 2 2 5 3 3 2 2 5 10 13 12 12 11 11 11 10 11 11 11 11 11 11 11 11 12 12 11 11 12 12 12 12 12 12 12 13 13 13 13 14 14 13
4 4 4 3 3 4 4 3 3 3 2 2 1 4 3 3 2 1 2 0 3 1 2 2 2 2 0 2 3 3 3 4 6 4 4 6 5 3 3 4 5 3 3 3 2 4 5 4 2 3 2 5 8 11 12 11 11 10 11 11 11 11 11 12 12 11 11 11 12 10 10 11 11 12 12 12 12 12 13 13 13 13 13 14 14
5 5 4 4 4 4 4 4 3 3 2 2 3 3 3 3 4 3 3 0 1 1 4 1 2 3 2 3 2 3 2 4 6 6 6 5 5 4 2 5 7 7 5 4 5 5 6 4 2 3 1 1 2 7 7 8 9 11 11 11 11 11 11 11 11 11 11 11 12 10 10 11 11 11 12 12 12 12 12 12 12 12 13 13 14
6 5 4 5 4 4 5 4 4 3 3 3 4 4 4 3 4 3 2 3 1 2 2 3 3 2 3 1 2 3 2 3 3 3 5 4 5 3 4 7 5 5 3 4 2 3 5 4 3 1 1 1 2 1 3 5 6 11 11 10 10 11 10 11 11 11 11 11 11 11 11 10 11 12 11 11 11 11 11 11 11 11 11 12 12
7 6 5 4 5 5 4 4 5 4 4 4 4 4 4 3 4 2 2 3 2 2 3 3 2 1 2 1 3 4 5 4 4 5 3 2 7 8 6 6 5 4 3 4 4 3 3 3 3 2 2 1 1 1 1 2 8 10 10 10 10 9 10 10 10 10 10 11 10 10 10 10 10 10 11 11 11 11 10 10 10 10 10 11 11
7 6 6 5 5 4 4 4 4 5 4 4 4 5 4 5 2 2 2 2 3 1 1 4 3 3 3 1 3 3 3 3 5 4 1 4 7 6 4 5 6 1 2 6 3 3 4 6 2 2 2 2 3 2 2 1 5 5 8 11 9 7 7 8 8 9 10 10 10 10 10 10 10 10 10 11 11 10 9 9 9 9 9 10 10
6 6 6 6 6 5 5 5 5 5 4 4 4 3 4 4 5 3 3 1 1 2 3 2 2 2 1 2 2 3 2 4 1 1 5 5 4 3 4 5 6 5 2 5 5 5 2 5 3 3 3 2 1 2 1 1 2 2 1 5 5 4 4 6 7 9 9 10 10 10 10 9 9 9 9 10 10 9 9 8 8 8 9 9 10
7 6 6 6 6 6 5 5 5 5 4 3 4 5 5 4 4 2 1 2 1 1 1 4 3 3 4 2 1 3 3 2 3 0 2 5 5 4 5 5 7 6 6 7 6 4 2 1 4 2 3 1 1 1 2 1 4 2 6 5 2 1 3 5 7 8 9 9 10 10 10 9 8 8 7 8 9 9 8 9 8 8 9 9 10
6 6 6 6 6 6 6 5 5 6 5 5 4 4 3 3 3 3 1 1 1 1 2 2 3 1 4 2 3 5 2 3 4 2 2 1 1 2 5 6 7 6 3 3 6 6 4 4 4 5 3 3 1 1 2 1 2 2 5 2 2 1 2 5 6 8 8 9 9 8 8 8 8 7 6 7 8 8 8 9 9 8 9 9 9
6 6 6 6 6 6 6 5 5 5 5 4 5 4 4 4 4 3 3 2 2 1 0 0 3 3 2 1 2 1 1 1 2 1 2 2 4 2 3 3 4 3 4 3 5 6 6 3 2 0 3 3 2 1 3 3 2 3 5 4 1 2 2 4 6 7 7 7 8 7 8 8 6 6 6 6 7 8 8 7 7 7 8 8 8
6 6 6 7 6 6 6 6 5 5 5 5 4 5 5 5 5 4 4 4 2 2 3 1 2 2 2 1 0 1 1 1 4 4 2 1 2 4 4 3 3 2 3 3 2 3 3 3 3 4 3 3 2 2 2 3 2 3 5 2 1 3 2 4 5 6 5 6 7 7 7 6 5 6 6 7 8 8 7 7 7 8 8 9 9
7 7 7 7 7 6 6 6 5 4 4 3 4 5 6 6 5 5 5 4 3 3 2 1 1 1 1 1 2 3 1 0 1 3 0 2 2 5 5 1 5 6 2 4 2 2 2 1 3 3 2 3 2 3 2 2 2 5 1 2 3 2 1 2 4 4 5 5 6 6 5 5 6 7 7 7 8 8 7 8 8 8 9 10 10
6 7 7 8 6 6 5 5 4 4 4 3 4 4 5 6 6 5 5 5 4 2 2 3 2 3 4 4 4 3 2 3 1 4 2 3 3 4 2 1 4 5 4 3 5 3 1 2 1 4 2 3 2 3 1 3 4 1 4 8 5 1 3 2 2 4 4 4 4 4 4 5 6 7 7 7 7 7 8 8 8 9 10 10 11
6 6 7 8 7 6 5 5 4 4 4 3 3 3 2 3 4 6 5 6 5 5 4 4 5 2 2 2 3 2 2 3 1 4 5 2 3 3 6 3 3 3 0 3 5 6 4 3 2 3 3 1 2 2 5 0 4 4 6 8 6 5 2 2 1 2 3 3 4 4 5 5 5 6 6 6 6 7 7 7 8 9 10 10 11
6 6 6 7 7 7 6 5 5 4 4 4 4 4 3 3 4 5 6 5 5 6 5 5 3 2 3 3 3 3 4 4 5 3 4 5 4 4 1 4 7 5 3 3 4 1 2 2 3 2 2 3 2 2 4 3 6 3 5 1 6 3 4 4 2 2 2 3 3 3 4 4 5 5 5 5 5 5 6 7 8 9 9 10 10
6 6 5 6 7 7 7 6 6 6 5 5 4 4 4 4 3 5 5 6 5 5 6 6 5 5 3 2 3 4 3 3 3 5 4 1 2 0 1 3 6 3 6 3 4 7 3 3 3 5 2 1 2 1 2 4 5 2 5 7 5 6 6 5 3 2 2 2 2 2 2 3 4 5 4 5 5 6 6 7 8 8 9 9 10
6 7 7 6 6 6 7 7 7 7 6 6 6 5 5 4 4 4 5 5 6 6 5 6 6 5 5 4 2 4 1 4 3 3 2 2 2 2 1 3 3 3 2 3 4 5 4 4 2 2 3 1 1 3 6 8 3 2 8 6 6 5 7 6 3 2 1 2 1 1 1 2 3 4 4 4 5 5 6 7 7 8 8 9 10
7 7 8 7 7 7 7 8 7 7 7 7 6 5 5 5 5 4 5 5 5 6 5 5 6 7 6 6 5 4 3 1 3 3 1 2 2 1 2 2 2 3 3 1 4 2 3 6 3 2 2 1 2 3 2 3 5 2 6 2 1 6 8 7 5 5 3 3 2 1 1 2 3 3 4 4 4 4 5 6 6 6 7 9 10
7 7 7 8 7 7 7 6 7 8 7 8 7 7 6 5 5 5 5 4 5 5 5 6 6 5 6 5 6 5 5 4 4 4 2 3 3 2 3 1 0 2 2 3 2 4 1 3 4 4 5 1 4 5 4 1 8 2 5 4 4 5 10 8 7 6 5 4 4 3 3 4 4 4 4 3 3 3 4 5 6 6 8 8 10
8 7 8 9 8 8 7 8 7 8 7 7 8 7 7 6 6 6 6 5 5 5 5 5 6 6 6 6 4 5 4 5 4 5 4 4 4 4 3 1 2 1 2 2 4 2 3 4 3 4 4 1 3 4 3 2 7 1 3 4 2 10 11 7 8 7 6 6 5 5 5 4 4 4 5 3 2 2 3 4 5 7 7 9 10
9 9 9 9 9 10 9 9 9 9 8 8 8 8 7 6 6 6 6 7 6 6 6 6 6 6 6 6 6 5 5 5 5 4 3 4 4 5 4 4 4 3 2 2 3 4 5 6 4 3 4 3 4 3 3 5 5 4 1 4 3 10 8 6 10 8 8 8 8 7 7 6 5 5 5 4 3 2 3 4 5 6 7 8 9
10 11 10 10 10 10 10 9 9 8 8 8 8 7 7 7 6 6 6 7 7 7 6 6 7 5 5 6 6 6 6 6 5 6 6 6 6 5 4 4 5 5 4 4 4 4 4 3 4 5 4 4 4 2 5 4 4 2 4 4 4 5 6 8 8 11 10 10 9 8 8 7 7 6 5 5 3 2 3 4 4 4 6 7 8
10 11 11 11 10 10 10 9 8 9 8 8 9 8 8 8 8 7 7 7 8 8 7 7 7 6 6 6 7 7 7 8 7 7 7 7 8 7 7 6 6 6 5 4 4 4 4 4 4 3 5 4 5 2 3 5 5 4 5 6 6 5 2 1 9 7 13 10 10 10 9 8 8 7 6 5 2 3 2 2 2 2 5 6 7
11 11 11 12 10 11 10 9 9 9 8 9 9 8 8 9 9 8 8 9 9 8 8 8 8 7 7 7 8 8 7 8 8 8 8 7 7 7 8 7 7 6 6 6 4 5 5 4 4 6 4 2 4 5 5 5 4 5 5 6 5 5 4 5 4 8 12 12 12 11 10 10 9 8 8 6 6 4 3 1 1 2 2 5 6
12 11 11 11 11 10 11 10 11 10 10 10 10 10 9 9 9 9 9 8 8 9 9 9 9 9 8 8 9 9 8 8 7 7 7 8 7 6 5 4 4 5 4 4 6 5 5 6 4 5 5 5 5 6 5 4 5 4 5 6 5 5 5 5 7 7 10 15 13 12 12 11 10 10 8 8 8 6 4 3 1 0 2 3 5
12 12 11 11 10 11 12 12 12 12 12 11 11 11 10 10 10 10 9 9 8 9 9 9 9 9 9 10 9 9 8 8 8 8 8 9 8 7 7 6 6 6 6 6 6 6 6 7 6 5 5 6 6 6 6 5 5 5 5 5 5 5 5 5 8 7 11 14 10 11 12 12 12 11 10 9 9 7 6 5 4 2 2 2 4
13 13 13 12 11 12 12 13 13 12 12 11 11 11 12 11 10 10 10 10 10 10 10 10 10 10 10 10 10 9 9 10 9 9 8 9 8 8 8 7 7 7 7 7 6 6 7 7 6 6 6 7 6 5 4 5 6 5 5 5 5 4 4 5 5 4 6 7 6 6 7 8 11 11 12 10 10 10 8 7 6 5 4 2 4
14 14 14 14 12 13 13 13 14 13 13 13 11 12 12 11 11 11 11 11 11 10 10 11 11 11 11 11 10 11 10 10 11 10 9 9 8 9 8 8 7 7 7 7 7 8 8 8 7 8 7 7 6 7 6 5 5 5 6 5 5 4 4 4 5 5 7 3 9 14 9 12 12 11 12 12 11 11 10 8 7 5 5 5 4
15 15 15 15 14 13 14 14 13 13 13 13 13 12 12 12 12 12 12 11 12 11 11 11 11 11 11 12 12 12 12 11 11 11 10 9 8 9 8 8 8 9 8 8 8 8 8 8 8 7 7 5 4 5 5 5 6 5 6 6 6 4 4 4 5 6 5 5 8 3 5 10 9 11 11 11 12 12 11 9 8 6 7 4 5
14 14 15 15 14 14 14 14 14 13 13 13 12 13 13 13 12 13 12 12 12 11 11 12 12 11 11 12 12 12 12 12 13 11 10 8 8 9 8 8 8 9 8 8 8 7 7 7 7 6 6 7 7 6 6 5 6 6 5 4 5 4 5 6 5 4 4 6 5 7 5 5 5 9 7 7 8 11 9 10 8 9 7 6 5
12 12 12 13 15 15 15 14 14 13 13 12 12 16 15 12 13 12 11 11 12 11 11 11 12 12 12 12 12 15 14 15 15 14 12 9 6 7 6 8 9 8 8 8 8 7 7 8 8 8 8 8 8 8 8 7 5 5 6 6 6 6 5 6 6 6 6 5 6 5 6 6 8 4 6 8 8 10 7 8 6 6 7 7 4
11 10 12 14 15 15 16 15 15 14 13 12 15 17 16 16 14 13 12 11 11 12 12 11 11 12 12 12 12 11 11 12 14 16 14 14 11 10 11 8 5 6 8 10 9 8 8 8 8 8 9 8 8 8 7 7 7 6 5 3 4 4 5 6 7 5 5 5 4 5 6 6 6 7 6 7 2 10 9 7 10 9 8 6 3
11 13 14 14 13 15 14 15 16 15 14 15 15 18 18 17 14 12 13 12 12 12 13 13 12 12 12 12 11 11 12 13 12 12 14 16 15 14 13 12 12 11 8 6 6 8 9 9 9 9 8 7 7 6 7 7 5 5 4 4 5 5 6 7 7 7 3 2 5 6 7 7 6 7 6 6 6 4 7 11 12 10 7 5 4
13 13 13 14 15 14 15 14 15 16 15 16 15 17 19 19 18 15 12 13 14 14 13 14 13 12 11 11 12 11 10 15 14 14 12 13 14 17 16 15 14 13 13 14 11 8 7 8 9 9 8 7 8 7 7 6 5 6 4 5 5 6 6 7 7 7 6 3 4 6 8 7 6 7 8 8 6 7 8 11 12 10 8 6 4
13 13 15 15 14 13 14 14 13 14 14 14 18 18 18 19 19 15 15 15 14 14 14 14 13 14 13 12 11 11 12 9 10 14 12 12 11 11 11 10 11 14 15 17 17 15 12 9 9 10 8 7 8 6 6 6 6 6 6 7 7 7 7 8 8 7 7 6 7 7 8 8 7 8 7 6 2 9 7 11 14 11 9 8 6
13 13 13 14 14 15 15 15 15 16 15 13 17 20 19 20 20 16 15 16 15 14 14 15 12 13 12 13 13 13 10 10 9 10 12 11 11 11 12 14 13 13 13 14 14 13 12 13 13 13 11 10 9 9 8 7 7 7 7 7 7 7 8 8 8 9 9 8 9 7 9 8 5 6 7 5 8 5 7 10 13 12 10 9 7
9 12 12 13 14 15 16 16 15 16 16 15 15 18 19 19 20 12 11 14 15 14 14 13 13 11 12 13 12 12 11 10 12 12 11 11 12 12 12 12 12 13 13 14 15 14 14 14 14 14 14 14 14 10 8 7 6 7 7 7 8 8 8 8 9 8 9 6 6 8 7 8 6 7 6 6 4 6 6 7 8 12 11 9 9
10 10 11 11 9 12 15 15 15 14 14 13 15 17 18 19 14 10 11 12 13 14 14 12 12 14 14 13 12 12 12 11 12 14 13 13 12 13 12 12 11 12 12 12 16 19 18 18 17 17 16 15 12 7 6 3 5 4 6 7 9 8 8 9 9 9 8 6 7 6 7 8 6 5 6 6 5 1 7 7 7 8 10 10 9
6 10 4 8 11 15 16 16 15 14 14 11 15 17 19 18 16 11 10 11 12 13 13 13 13 13 13 17 15 14 14 13 14 15 16 13 12 13 12 13 13 13 12 12 9 13 21 21 22 20 19 17 15 13 10 9 7 4 7 11 12 9 10 10 10 9 8 7 8 6 6 8 6 5 6 5 5 7 5 8 8 7 7 7 9
7 8 7 7 8 9 6 10 14 18 17 10 12 15 17 19 16 10 10 10 12 12 12 12 13 12 11 12 16 15 14 14 15 15 17 14 12 13 13 13 13 14 13 12 12 11 9 11 10 12 11 11 10 9 10 15 13 10 9 12 11 10 11 11 10 8 9 9 8 6 7 7 6 6 6 5 6 6 2 9 7 7 7 6 6
Wind_Direction
149 163 171 110 126 127 138 128 131 127 129 102 128 125 162 135 180 179 241 108 130 123 119 118 124 113 113 126 129 122 115 113 114 130 129 139 141 146 149 146 143 139 138 138 134 126 122 119 115 116 117 116 97 79 44 44 358 356 351 348 347 354 352 345 345 340 348 351 353 351 352 352 354 350 346 349 346 346 349 348 351 345 344 345 342
127 140 117 125 127 123 119 121 120 129 123 142 121 147 133 164 100 44 116 172 89 110 129 131 109 121 126 131 130 126 126 126 142 139 146 135 128 145 156 151 152 149 144 137 136 134 133 133 127 133 114 113 113 114 123 320 344 325 335 342 340 343 340 338 333 336 341 345 346 344 346 345 345 344 340 337 339 337 335 336 335 333 332 330 328
111 116 124 136 121 122 114 119 120 113 118 118 102 85 96 122 57 91 96 85 101 107 95 105 108 114 121 121 129 122 123 123 128 145 138 130 137 143 155 161 159 157 150 151 150 152 148 132 142 137 101 157 313 239 278 304 305 321 329 324 328 328 331 328 329 330 337 339 340 337 336 338 339 335 335 333 330 330 326 324 326 323 323 324 322
120 125 132 127 124 118 115 107 103 112 112 100 99 120 118 92 86 77 81 101 97 107 117 112 112 106 125 109 102 117 132 166 129 94 101 121 134 139 151 161 164 163 169 169 169 169 164 165 153 156 190 236 255 267 270 301 309 314 306 313 318 324 320 321 321 328 330 333 331 326 325 330 326 325 325 323 323 318 317 317 314 315 316 316 315
111 118 120 120 110 120 112 104 107 101 86 79 90 107 128 133 125 141 101 105 114 87 51 89 93 112 104 119 110 107 104 101 112 148 113 136 142 146 149 153 156 174 180 181 182 180 183 185 188 197 214 226 237 260 274 277 290 290 305 306 315 318 321 321 325 325 328 326 317 319 318 318 318 313 315 314 310 311 309 308 307 304 306 306 304
116 119 130 118 123 119 109 106 93 92 104 122 127 127 95 109 103 104 136 107 88 96 134 107 124 115 113 108 114 111 122 117 108 105 159 119 106 127 138 142 158 167 171 188 192 193 199 200 201 213 217 229 242 256 267 268 275 292 293 302 304 312 313 314 314 318 314 308 307 309 310 305 306 308 302 303 299 296 299 298 302 303 300 299 299
111 114 120 122 130 121 125 115 100 106 107 72 90 95 127 125 195 100 58 87 92 27 93 82 78 74 74 79 95 110 102 92 95 119 105 118 149 127 128 137 143 154 162 171 188 200 204 208 212 218 222 236 246 253 257 267 274 279 290 298 305 302 300 301 302 301 296 296 297 296 296 297 297 299 299 294 293 291 289 291 291 295 296 294 292
105 107 129 138 118 125 117 102 111 107 85 94 127 133 91 88 86 91 246 141 123 126 115 127 96 107 121 126 112 107 88 117 125 118 119 146 117 127 128 117 149 153 137 152 168 182 200 208 218 218 225 232 239 245 251 258 264 269 281 283 283 287 289 288 291 291 292 290 289 289 288 291 293 292 293 291 289 290 288 285 284 283 285 286 287
117 117 98 140 124 129 118 123 123 95 112 163 130 91 232 97 59 118 140 24 280 105 110 129 121 132 113 108 104 126 131 127 130 120 103 107 162 144 146 151 154 141 176 167 178 161 188 204 207 217 220 228 234 239 246 252 259 265 265 267 267 271 277 282 282 283 284 284 284 285 286 287 292 291 289 289 288 286 283 281 279 276 275 277 277
129 138 129 144 130 127 122 128 116 127 136 149 106 140 142 123 112 126 134 142 252 147 108 68 38 59 94 110 112 132 118 130 105 143 138 129 140 138 149 161 178 159 169 158 150 156 169 194 204 208 216 221 224 232 237 245 250 255 257 260 266 269 273 275 274 274 277 279 281 283 285 285 286 287 285 284 284 282 280 278 275 273 271 270 269
143 159 151 158 140 125 128 131 124 129 146 159 152 135 141 116 151 123 247 299 36 358 56 14 44 86 83 94 99 77 107 126 163 178 171 164 138 178 153 157 134 146 156 193 154 119 147 169 189 197 203 210 219 221 228 234 241 246 251 256 260 262 265 268 270 272 273 275 278 279 282 283 282 282 282 280 279 278 275 273 271 271 270 269 267
157 153 178 148 143 140 133 144 134 150 171 183 141 152 128 126 130 152 186 171 214 249 168 223 66 59 70 94 84 108 108 138 182 173 173 135 148 193 135 141 147 152 139 135 26 110 134 100 196 179 161 189 206 213 218 224 231 235 243 249 253 257 261 264 269 271 273 276 277 280 279 279 279 279 279 278 275 274 273 270 267 268 268 267 265
156 161 161 154 145 143 137 143 160 149 157 157 103 112 147 179 136 163 178 174 209 207 83 30 43 75 357 107 135 158 136 217 219 165 151 131 141 116 100 120 120 110 90 86 184 160 137 156 180 166 127 160 190 206 210 215 220 228 234 241 246 253 257 262 266 271 274 276 279 281 280 280 279 278 275 273 270 267 267 267 267 265 266 266 265
160 161 157 162 157 146 149 155 156 146 168 106 113 128 149 196 162 183 239 221 121 166 85 320 141 84 113 113 141 146 161 190 203 136 135 128 112 110 189 148 139 140 132 148 167 191 152 139 169 70 95 283 146 171 204 211 214 219 228 232 241 248 255 261 267 272 275 278 280 282 282 280 277 274 273 270 271 270 269 270 268 268 267 267 267
160 164 162 169 162 152 161 158 155 150 161 162 157 169 181 191 184 187 187 172 242 78 121 319 69 83 62 149 111 131 207 206 97 137 129 143 134 125 156 111 112 121 167 141 116 61 51 75 86 134 63 268 244 156 186 177 143 191 214 225 234 246 257 264 269 274 279 284 287 289 289 287 285 285 284 281 280 279 278 279 280 279 277 278 274
167 167 167 163 162 171 161 159 154 168 170 170 170 176 175 186 187 160 230 179 121 156 119 61 25 76 127 97 149 108 114 133 153 122 114 152 142 141 150 121 85 87 169 172 114 76 101 124 145 141 209 142 324 223 231 94 147 179 197 212 222 235 250 263 274 282 287 290 292 292 292 290 289 286 290 290 289 289 291 293 292 290 289 288 285
165 171 159 159 166 170 159 161 160 172 178 167 180 175 180 176 181 173 225 299 131 121 135 118 80 2 51 78 77 109 89 131 104 348 305 139 100 89 5 120 111 99 342 60 98 195 174 114 109 150 171 190 204 220 242 188 161 183 195 204 207 222 239 261 281 289 292 294 296 295 292 289 289 292 297 303 308 308 305 303 306 306 305 306 306
170 175 158 162 166 164 169 165 168 171 188 170 181 160 188 195 163 204 169 47 18 154 139 51 90 78 123 43 343 52 2 7 309 111 307 53 121 109 185 121 113 144 151 166 185 137 182 144 151 151 178 210 79 247 22 217 157 210 68 111 187 199 256 271 286 292 293 294 294 293 291 292 298 303 311 316 316 313 316 319 319 322 325 325 330
164 177 158 167 166 166 173 181 166 172 183 179 180 189 178 199 155 199 162 90 110 218 182 142 83 199 200 159 118 39 65 354 45 82 96 351 329 135 123 135 135 150 176 189 146 135 67 154 161 126 112 253 141 356 250 114 103 138 89 108 145 176 277 281 284 285 289 290 293 296 303 311 316 322 322 318 320 326 332 339 341 344 346 351 355
160 167 169 166 176 171 178 190 178 173 180 184 192 186 170 180 168 162 135 123 119 270 355 12 132 99 50 356 101 57 350 3 59 30 32 136 202 213 158 164 164 141 142 100 89 87 104 274 150 171 122 77 337 12 334 42 19 57 102 143 155 279 285 281 280 281 282 293 301 310 317 323 332 336 334 335 341 348 356 2 2 4 4 5 5
165 166 178 165 179 178 181 190 188 176 184 195 185 181 175 173 172 174 169 147 214 103 294 324 326 87 111 42 21 121 187 54 96 196 288 299 130 79 60 60 89 8 42 125 146 156 151 86 36 314 129 118 99 357 35 36 56 110 100 99 14 297 291 285 281 287 298 305 313 322 330 340 347 347 355 1 7 14 18 17 17 18 17 15 9
169 170 172 177 179 180 185 187 190 181 193 191 184 170 181 186 183 189 174 186 179 175 189 182 329 13 96 101 357 339 20 203 211 192 166 271 313 158 141 158 85 97 172 88 90 107 124 165 176 59 45 73 62 79 65 80 28 61 90 89 291 287 302 291 290 299 312 315 328 341 346 354 358 11 18 23 27 32 36 33 35 27 23 11 2
175 172 179 179 178 187 189 179 189 167 203 175 185 185 185 184 191 190 188 193 190 191 237 80 201 236 208 193 250 205 168 3 339 357 26 232 284 285 162 67 112 137 19 51 347 66 80 88 95 90 23 75 27 37 46 133 85 89 117 267 219 275 308 302 306 312 316 325 351 348 1 7 20 28 28 28 38 44 45 42 31 25 14 5 354
188 173 177 185 170 189 193 172 188 179 192 190 197 197 197 181 184 188 195 195 207 220 246 216 235 180 268 183 205 226 160 249 241 149 297 325 313 303 354 166 234 124 140 156 279 105 118 123 156 95 37 52 53 351 209 196 109 111 286 173 173 269 137 331 317 323 322 346 350 360 11 26 33 32 33 38 46 49 46 37 29 17 6 357 346
191 183 190 176 173 177 190 172 181 192 193 187 203 210 204 188 186 191 194 195 203 206 209 214 216 254 252 289 255 286 175 209 179 254 162 167 246 284 327 88 208 133 105 142 187 185 169 120 37 49 64 40 77 12 315 57 80 85 310 152 165 170 131 93 6 346 345 359 5 9 26 41 42 41 40 51 54 48 39 34 24 15 1 353 346
194 193 190 177 177 176 179 180 173 186 185 184 197 200 208 201 186 197 202 197 208 208 220 226 236 210 226 271 266 232 234 213 180 217 219 179 214 248 70 312 279 116 168 182 306 213 180 163 131 95 69 355 40 40 332 314 110 123 293 90 157 180 139 106 63 19 359 14 13 16 31 37 54 56 54 64 66 55 40 26 25 11 2 353 347
194 185 197 185 186 172 180 183 174 181 187 196 200 200 197 216 195 197 214 183 207 209 208 221 214 211 234 229 276 282 301 333 262 185 250 250 243 17 179 281 284 202 156 202 172 279 116 150 195 114 94 153 320 165 333 316 86 210 261 245 159 179 122 118 88 75 30 41 21 18 29 44 63 71 72 60 60 50 29 25 16 10 3 351 345
198 187 186 190 188 182 181 191 184 182 189 195 201 200 196 210 205 196 209 197 190 199 219 215 227 213 224 233 239 278 253 235 288 325 308 10 4 360 54 243 316 301 83 183 193 181 251 194 149 77 129 121 289 268 172 253 115 318 248 254 135 150 132 125 130 123 129 73 76 33 32 78 82 96 74 70 59 39 29 17 12 9 2 351 345
192 191 185 188 188 195 195 195 188 193 191 196 197 200 193 206 204 201 212 208 186 199 214 219 234 217 216 210 219 229 252 352 293 277 26 17 274 211 311 331 42 324 293 212 286 319 164 312 131 151 50 200 240 283 252 262 90 2 327 350 281 142 148 146 160 153 169 155 121 145 160 140 119 97 94 81 60 45 27 15 10 7 3 355 347
200 187 188 184 189 194 197 207 195 201 191 201 196 200 195 209 206 210 208 212 198 200 210 221 216 232 236 223 201 223 217 222 221 243 204 181 239 233 215 182 133 299 353 314 322 297 328 222 281 129 187 204 254 229 198 108 126 270 322 313 298 119 152 162 171 181 178 167 160 157 163 144 125 112 111 104 84 60 35 18 16 12 6 357 350
193 200 188 192 189 190 200 202 202 205 202 206 194 202 201 213 209 214 196 205 205 208 210 218 228 214 224 236 225 239 241 235 236 202 200 187 214 241 212 223 227 212 311 317 272 218 327 299 297 9 329 258 316 316 328 347 143 157 307 296 279 138 162 164 181 183 186 180 169 168 168 164 150 142 140 132 132 104 44 29 25 16 5 358 348
195 194 201 199 195 195 196 207 203 201 200 207 203 199 208 209 216 218 193 201 211 211 219 208 222 205 209 220 227 236 235 238 239 246 209 207 229 228 212 205 201 224 216 252 274 293 295 293 338 305 264 12 313 292 347 301 133 146 267 266 186 157 176 173 179 183 191 186 178 173 172 173 169 166 157 147 142 99 58 50 34 17 6 354 348
199 194 202 203 201 202 208 200 212 200 200 204 204 201 202 210 220 219 217 195 210 212 216 225 231 221 203 213 220 224 234 235 231 232 229 203 206 229 246 215 220 205 203 218 257 272 272 300 314 285 345 326 309 352 285 293 290 231 287 298 301 257 201 179 176 181 195 190 182 178 172 177 182 178 174 164 144 102 76 55 45 20 1 349 346
210 202 199 205 204 204 206 207 212 213 196 205 209 206 205 207 214 210 215 210 205 218 216 216 222 228 209 216 223 219 213 227 233 230 236 226 200 208 206 220 230 214 189 221 242 275 276 270 268 316 300 256 266 260 302 297 292 302 291 301 281 278 269 70 167 177 190 195 185 179 178 179 187 191 188 182 160 141 104 77 53 23 350 347 337
201 214 201 207 201 205 209 203 205 215 210 202 212 217 209 207 213 225 212 205 212 217 215 219 220 216 219 217 220 222 216 215 221 235 239 245 245 219 205 211 217 226 195 190 229 250 265 274 280 263 258 318 292 295 290 283 285 271 273 272 290 306 332 298 264 161 177 194 188 181 180 181 187 193 188 183 177 160 153 127 132 8 342 337 326
200 203 214 209 203 200 207 206 202 209 209 212 209 210 217 212 212 218 227 220 215 217 218 218 216 218 219 221 223 220 221 216 218 223 230 236 237 256 252 238 231 240 266 223 202 230 260 270 266 277 288 290 290 283 272 265 272 279 292 305 286 286 298 306 301 140 178 191 191 182 179 181 190 193 193 187 177 176 183 170 171 200 322 317 318
212 199 204 213 208 201 206 206 206 206 209 210 210 212 210 213 215 216 219 222 224 225 226 223 225 219 217 221 219 223 223 222 213 220 226 223 230 231 226 226 230 232 231 234 232 229 243 255 260 258 266 265 268 273 268 278 286 284 271 259 287 293 290 303 306 142 160 185 199 189 179 185 191 197 195 194 186 182 186 185 175 188 239 285 310
213 211 199 204 210 207 208 209 209 207 209 210 209 213 212 210 210 215 218 220 220 222 224 224 225 225 223 221 225 220 221 221 222 219 224 224 221 229 227 223 223 221 223 224 228 233 238 245 258 266 255 258 261 254 276 280 273 287 293 291 283 274 248 275 297 304 168 174 191 189 196 192 198 203 198 194 199 189 188 185 181 195 221 251 268
211 214 207 202 204 209 208 212 212 209 208 211 210 211 216 216 210 212 219 217 218 219 222 225 225 222 222 223 221 222 223 222 222 222 218 223 223 221 223 229 233 228 221 225 222 229 232 239 246 247 254 256 250 251 238 234 252 261 277 284 287 282 288 278 273 275 301 227 190 189 190 190 188 197 194 202 198 197 193 187 177 189 199 215 260
213 215 217 207 202 207 209 211 214 213 207 211 211 212 213 216 214 213 218 223 218 217 221 223 228 229 224 224 224 219 222 223 224 223 225 219 218 224 220 220 223 224 230 228 223 224 228 237 242 249 253 262 262 277 281 259 248 249 252 260 261 271 279 280 271 284 281 275 299 218 176 199 188 188 184 199 203 199 196 188 188 184 198 203 234
211 217 219 219 207 205 209 210 212 215 213 209 211 209 210 212 218 218 215 218 224 222 219 222 222 227 231 226 224 227 215 215 219 226 230 225 222 219 223 221 219 224 227 231 228 228 235 245 246 250 255 250 251 252 255 256 250 256 275 275 289 288 280 271 272 282 276 283 275 282 276 257 213 181 197 201 204 198 194 205 181 187 193 200 208
219 214 221 222 222 210 208 209 212 215 217 215 206 205 205 208 209 218 216 217 222 223 223 226 227 223 226 233 231 217 212 199 203 209 224 239 245 254 228 214 219 225 226 230 232 229 234 238 241 242 244 244 244 232 234 240 242 236 238 233 242 256 268 286 287 263 274 279 292 297 290 279 293 287 193 215 177 183 188 195 198 169 165 179 179
226 218 220 225 225 225 216 211 211 215 217 220 198 194 201 208 211 212 220 219 218 225 225 223 230 233 230 227 234 223 203 196 196 198 203 216 221 236 258 268 275 242 226 227 231 239 235 237 241 245 248 256 259 274 279 280 281 286 286 284 284 285 273 278 281 279 260 269 271 275 269 280 285 269 273 283 211 181 185 155 126 140 156 150 181
223 227 224 224 229 229 227 221 216 214 220 218 196 190 196 201 210 216 217 221 221 221 226 227 225 228 234 236 233 232 221 217 214 195 202 206 213 223 233 246 249 252 256 254 249 238 235 242 248 250 258 257 264 257 263 269 279 292 313 306 284 271 274 269 267 276 287 225 247 266 273 274 272 273 266 263 267 261 122 135 146 145 145 149 178
222 219 226 228 225 229 233 232 228 221 219 211 194 190 192 196 203 216 224 221 225 226 225 226 229 228 228 231 241 240 240 196 201 208 200 205 212 217 223 230 242 249 255 254 242 245 275 265 252 252 248 258 262 263 264 281 299 276 279 273 273 271 268 263 267 276 282 267 236 256 273 280 286 287 269 226 242 123 128 143 147 148 139 158 184
223 224 223 224 226 225 230 235 237 236 231 201 188 188 193 194 199 204 224 230 229 230 229 230 230 228 227 232 229 233 243 238 201 206 203 207 207 213 220 226 231 236 236 241 249 247 244 252 259 259 257 255 260 259 265 268 261 259 259 266 269 274 269 268 278 277 278 274 262 273 274 274 277 286 288 293 4 134 152 149 153 151 152 163 180
225 226 229 226 225 226 227 228 233 237 238 215 183 188 191 193 198 199 218 229 235 234 234 233 234 236 229 229 230 231 227 233 240 205 215 210 210 211 216 223 225 230 229 228 226 229 230 235 238 246 249 251 251 252 253 247 245 248 250 257 270 272 276 285 282 271 268 249 246 253 259 263 264 270 278 260 256 146 130 146 155 152 160 171 176
256 240 224 233 233 229 228 229 231 233 235 219 187 190 189 192 192 197 213 226 236 242 239 236 235 232 235 235 233 232 229 225 222 221 208 212 217 217 218 220 223 226 229 224 219 219 223 224 229 234 238 237 236 244 251 251 242 234 232 242 244 246 254 260 263 269 267 269 236 208 236 255 260 277 282 293 306 128 149 149 166 160 164 173 174
307 307 296 275 273 252 242 233 234 238 237 218 183 185 190 190 183 200 208 219 232 240 245 243 238 236 233 230 231 236 232 229 218 203 208 202 219 222 225 226 228 229 231 225 206 212 215 225 226 230 237 245 252 244 243 244 249 263 266 260 248 250 256 259 264 266 267 271 275 209 218 259 259 269 281 287 301 216 164 162 156 182 175 173 178
296 288 349 313 315 318 298 272 249 241 245 226 179 185 186 181 185 197 207 217 227 234 241 243 243 241 234 231 225 228 233 232 216 197 199 197 215 223 226 230 232 235 237 242 235 203 211 209 216 222 224 230 237 246 243 235 213 223 225 238 246 255 257 255 257 260 264 262 259 252 201 236 263 270 278 282 270 268 214 152 158 159 180 185 193
251 245 226 213 216 230 264 298 322 295 264 249 178 187 185 179 190 200 206 218 227 232 234 238 240 243 243 233 225 225 226 231 220 197 197 196 214 219 224 231 235 236 237 236 240 240 208 214 228 228 240 241 238 235 237 235 217 206 228 240 249 248 254 257 264 273 274 261 260 226 225 243 249 258 259 260 267 276 18 128 155 165 182 186 183